When you browse on this site, cookies collect data to enhance your experience and personalize the content and advertising you see.
Visit our Privacy Policy to learn more. By continuing to use the site, you agree to this use of cookies and data.
  • In United Kingdom
  • List of Countries
  • For 7 days
  • Water Temperature
  • Weather Map
  • Weather Widgets
  • user-avatar
    Login

    Hourly Weather Belfast

    Today, 3 June, Wednesday

    Time Temperature Precipitation Wind Pressure Humidity
    00:00 +12°C° 0.2 mm 5 mps 760 mmHg 94%
    01:00 +10°C° 0 mm 5 mps 759 mmHg 93%
    02:00 +9°C° 0 mm 6 mps 759 mmHg 92%
    03:00 +9°C° 0 mm 6 mps 759 mmHg 92%
    04:00 +9°C° 0.1 mm 6 mps 759 mmHg 92%
    05:00 +9°C° 0.1 mm 6 mps 759 mmHg 91%
    06:00 +10°C° 0.1 mm 6 mps 759 mmHg 91%
    07:00 +10°C° 0.1 mm 6 mps 759 mmHg 90%
    08:00 +9°C° 0.1 mm 6 mps 759 mmHg 89%
    09:00 +9°C° 0.1 mm 5 mps 760 mmHg 88%
    10:00 +10°C° 0 mm 5 mps 760 mmHg 83%
    11:00 +11°C° 0 mm 6 mps 760 mmHg 79%
    12:00 +11°C° 0 mm 6 mps 760 mmHg 74%
    13:00 +13°C° 0 mm 6 mps 760 mmHg 71%
    14:00 +14°C° 0 mm 6 mps 759 mmHg 67%
    15:00 +14°C° 0 mm 6 mps 759 mmHg 64%
    16:00 +14°C° 0 mm 6 mps 759 mmHg 65%
    17:00 +13°C° 0 mm 6 mps 759 mmHg 67%
    18:00 +13°C° 0 mm 6 mps 759 mmHg 69%
    19:00 +10°C° 0 mm 6 mps 759 mmHg 72%
    20:00 +9°C° 0 mm 6 mps 759 mmHg 76%
    21:00 +8°C° 0 mm 6 mps 759 mmHg 80%
    22:00 +7°C° 0 mm 6 mps 758 mmHg 83%
    23:00 +7°C° 0 mm 6 mps 758 mmHg 85%

    Tomorrow, 4 June, Thursday

    Time Temperature Precipitation Wind Pressure Humidity
    00:00 +5°C° 0 mm 6 mps 758 mmHg 88%
    01:00 +6°C° 0 mm 5 mps 757 mmHg 90%
    02:00 +5°C° 0 mm 5 mps 757 mmHg 92%
    03:00 +5°C° 0 mm 4 mps 756 mmHg 94%
    04:00 +6°C° 0 mm 4 mps 756 mmHg 92%
    05:00 +7°C° 0 mm 4 mps 755 mmHg 90%
    06:00 +8°C° 0 mm 4 mps 755 mmHg 88%
    07:00 +10°C° 0.1 mm 4 mps 754 mmHg 88%
    08:00 +10°C° 0.1 mm 4 mps 754 mmHg 87%
    09:00 +11°C° 0.1 mm 4 mps 753 mmHg 87%
    10:00 +12°C° 0.2 mm 4 mps 753 mmHg 86%
    11:00 +12°C° 0.2 mm 4 mps 753 mmHg 85%
    12:00 +13°C° 0.2 mm 4 mps 752 mmHg 85%
    13:00 +14°C° 0.2 mm 5 mps 752 mmHg 79%
    14:00 +14°C° 0.2 mm 6 mps 751 mmHg 74%
    15:00 +15°C° 0.2 mm 6 mps 751 mmHg 69%
    16:00 +14°C° 0.1 mm 6 mps 751 mmHg 70%
    17:00 +14°C° 0.1 mm 7 mps 750 mmHg 72%
    18:00 +12°C° 0.1 mm 7 mps 750 mmHg 73%
    19:00 +11°C° 0 mm 7 mps 750 mmHg 76%
    20:00 +9°C° 0 mm 6 mps 750 mmHg 79%
    21:00 +8°C° 0 mm 6 mps 750 mmHg 81%
    22:00 +7°C° 0 mm 6 mps 750 mmHg 84%
    23:00 +7°C° 0 mm 6 mps 750 mmHg 86%

    Day after tomorrow, 5 June, Friday

    Time Temperature Precipitation Wind Pressure Humidity
    00:00 +5°C° 0 mm 6 mps 750 mmHg 89%
    01:00 +5°C° 0 mm 6 mps 750 mmHg 89%
    02:00 +4°C° 0 mm 6 mps 750 mmHg 89%
    03:00 +4°C° 0 mm 6 mps 750 mmHg 90%
    04:00 +5°C° 0 mm 6 mps 749 mmHg 87%
    05:00 +5°C° 0 mm 6 mps 749 mmHg 84%
    06:00 +7°C° 0 mm 6 mps 749 mmHg 81%
    07:00 +8°C° 0.2 mm 6 mps 749 mmHg 79%
    08:00 +9°C° 0.2 mm 7 mps 749 mmHg 78%
    09:00 +9°C° 0.2 mm 8 mps 749 mmHg 76%
    10:00 +10°C° 0.1 mm 8 mps 749 mmHg 71%
    11:00 +11°C° 0.1 mm 9 mps 749 mmHg 66%
    12:00 +11°C° 0.1 mm 9 mps 749 mmHg 60%
    13:00 +11°C° 0.1 mm 9 mps 749 mmHg 59%
    14:00 +11°C° 0.1 mm 10 mps 749 mmHg 58%
    15:00 +11°C° 0.1 mm 10 mps 749 mmHg 57%
    16:00 +9°C° 0.1 mm 10 mps 749 mmHg 60%
    17:00 +8°C° 0.1 mm 10 mps 749 mmHg 63%
    18:00 +8°C° 0.1 mm 10 mps 749 mmHg 66%
    19:00 +7°C° 0 mm 9 mps 749 mmHg 69%
    20:00 +6°C° 0 mm 9 mps 749 mmHg 73%
    21:00 +5°C° 0 mm 8 mps 749 mmHg 76%
    22:00 +4°C° 0 mm 8 mps 748 mmHg 77%
    23:00 +3°C° 0 mm 9 mps 748 mmHg 78%

    6 June, Saturday

    Time Temperature Precipitation Wind Pressure Humidity
    00:00 +3°C° 0 mm 9 mps 748 mmHg 79%
    01:00 +5°C° 0 mm 9 mps 747 mmHg 76%
    02:00 +5°C° 0 mm 10 mps 747 mmHg 73%
    03:00 +6°C° 0 mm 10 mps 747 mmHg 70%
    04:00 +6°C° 0.1 mm 11 mps 747 mmHg 74%
    05:00 +6°C° 0.1 mm 11 mps 746 mmHg 79%
    06:00 +6°C° 0.1 mm 11 mps 746 mmHg 83%
    07:00 +6°C° 0.4 mm 11 mps 746 mmHg 86%
    08:00 +7°C° 0.4 mm 11 mps 746 mmHg 89%
    09:00 +7°C° 0.4 mm 10 mps 746 mmHg 92%
    10:00 +7°C° 0.5 mm 10 mps 746 mmHg 92%
    11:00 +7°C° 0.5 mm 10 mps 746 mmHg 93%
    12:00 +8°C° 0.5 mm 10 mps 746 mmHg 93%
    13:00 +8°C° 0.5 mm 9 mps 746 mmHg 93%
    14:00 +8°C° 0.5 mm 9 mps 746 mmHg 92%
    15:00 +8°C° 0.5 mm 9 mps 746 mmHg 92%
    16:00 +10°C° 0.1 mm 9 mps 746 mmHg 90%
    17:00 +10°C° 0.1 mm 9 mps 746 mmHg 89%
    18:00 +11°C° 0.1 mm 8 mps 746 mmHg 87%
    19:00 +10°C° 0 mm 8 mps 746 mmHg 86%
    20:00 +9°C° 0 mm 7 mps 746 mmHg 86%
    21:00 +9°C° 0 mm 7 mps 746 mmHg 85%
    22:00 +9°C° 0 mm 6 mps 747 mmHg 87%
    23:00 +8°C° 0 mm 6 mps 747 mmHg 90%

    7 June, Sunday

    Time Temperature Precipitation Wind Pressure Humidity
    00:00 +8°C° 0 mm 5 mps 747 mmHg 92%
    01:00 +8°C° 0 mm 5 mps 747 mmHg 92%
    02:00 +7°C° 0 mm 5 mps 748 mmHg 93%
    03:00 +7°C° 0 mm 5 mps 748 mmHg 93%
    04:00 +8°C° 0 mm 5 mps 749 mmHg 92%
    05:00 +8°C° 0 mm 5 mps 749 mmHg 91%
    06:00 +9°C° 0 mm 5 mps 750 mmHg 89%
    07:00 +10°C° 0 mm 5 mps 750 mmHg 84%
    08:00 +13°C° 0 mm 5 mps 751 mmHg 78%
    09:00 +14°C° 0 mm 5 mps 751 mmHg 73%
    10:00 +15°C° 0 mm 5 mps 752 mmHg 72%
    11:00 +15°C° 0 mm 5 mps 752 mmHg 71%
    12:00 +16°C° 0 mm 5 mps 752 mmHg 70%
    13:00 +16°C° 0 mm 6 mps 752 mmHg 71%
    14:00 +15°C° 0 mm 6 mps 753 mmHg 73%
    15:00 +15°C° 0 mm 6 mps 753 mmHg 74%
    16:00 +15°C° 0 mm 6 mps 753 mmHg 76%
    17:00 +15°C° 0 mm 6 mps 753 mmHg 77%
    18:00 +14°C° 0 mm 6 mps 753 mmHg 79%
    19:00 +13°C° 0 mm 6 mps 754 mmHg 82%
    20:00 +11°C° 0 mm 6 mps 754 mmHg 86%
    21:00 +10°C° 0 mm 5 mps 754 mmHg 90%
    22:00 +9°C° 0 mm 5 mps 754 mmHg 91%
    23:00 +9°C° 0 mm 5 mps 754 mmHg 92%

    8 June, Monday

    Time Temperature Precipitation Wind Pressure Humidity
    00:00 +8°C° 0 mm 5 mps 755 mmHg 93%
    01:00 +8°C° 0 mm 4 mps 755 mmHg 94%
    02:00 +8°C° 0 mm 4 mps 755 mmHg 94%
    03:00 +7°C° 0 mm 4 mps 755 mmHg 95%
    04:00 +8°C° 0 mm 4 mps 755 mmHg 92%
    05:00 +9°C° 0 mm 5 mps 755 mmHg 90%
    06:00 +9°C° 0 mm 5 mps 755 mmHg 88%
    07:00 +12°C° 0 mm 5 mps 755 mmHg 83%
    08:00 +13°C° 0 mm 5 mps 755 mmHg 79%
    09:00 +14°C° 0 mm 5 mps 755 mmHg 74%
    10:00 +15°C° 0 mm 5 mps 756 mmHg 73%
    11:00 +15°C° 0 mm 5 mps 756 mmHg 72%
    12:00 +16°C° 0 mm 5 mps 756 mmHg 71%
    13:00 +16°C° 0.2 mm 5 mps 756 mmHg 73%
    14:00 +16°C° 0.2 mm 5 mps 756 mmHg 74%
    15:00 +16°C° 0.2 mm 5 mps 756 mmHg 76%
    16:00 +15°C° 0.1 mm 5 mps 756 mmHg 78%
    17:00 +14°C° 0.1 mm 5 mps 756 mmHg 81%
    18:00 +14°C° 0.1 mm 5 mps 756 mmHg 84%
    19:00 +13°C° 0 mm 5 mps 756 mmHg 86%
    20:00 +12°C° 0 mm 5 mps 756 mmHg 88%
    21:00 +10°C° 0 mm 5 mps 757 mmHg 90%
    22:00 +11°C° 0 mm 4 mps 757 mmHg 92%
    23:00 +10°C° 0 mm 4 mps 757 mmHg 94%
    Show more